RH
12 11 11 9 8 7 7 8 7 7 7 8 8 8 9 9 10 9 8 8 9 9 10 11 12 12 10 8 7 8 7 6 9 11 11 12 9 8 9 11 11 11 8 6 9 10 10 12 14 18 18 20 23 21 23 24 28 32 30 31 32 27 23 22 24 23 21 20 20 23 24 24 28 35 37 37 37 37 38 39 45 44 39 44 50 60 69 73
11 10 9 8 9 9 8 8 8 8 9 9 9 9 9 10 10 10 10 8 8 8 8 10 10 11 10 8 8 7 6 6 11 15 12 10 11 12 12 13 12 10 8 8 13 13 11 12 14 16 17 18 21 21 23 23 26 30 27 28 27 21 21 24 22 20 20 20 19 23 26 26 26 28 30 31 31 34 31 31 40 36 33 43 53 68 78 80
9 8 9 9 10 10 9 9 9 10 10 10 10 10 10 10 11 11 11 11 10 10 9 8 8 9 9 8 7 6 7 10 13 16 13 11 14 14 13 13 10 9 7 8 11 11 10 13 15 16 15 15 18 21 22 22 24 25 26 28 25 19 21 24 23 21 22 23 20 22 26 24 24 24 24 26 26 28 30 36 41 37 42 48 55 78 85 80
8 9 10 10 10 10 10 10 10 10 10 10 10 9 10 9 10 10 11 11 12 12 12 11 9 8 8 7 7 6 7 11 14 15 13 12 14 14 13 12 10 9 7 8 9 8 9 13 16 16 14 14 15 18 19 22 23 21 25 25 20 21 22 22 23 23 23 23 20 21 24 22 24 26 25 25 24 28 37 51 58 57 63 58 57 77 80 75
9 9 10 10 10 10 10 10 9 10 9 10 10 9 9 9 9 9 10 10 11 12 12 13 12 10 8 6 6 5 8 12 13 13 13 12 14 15 14 12 10 9 8 8 10 9 8 13 16 15 15 14 14 17 17 19 21 20 23 20 17 21 21 19 20 20 19 19 17 19 23 22 25 30 32 32 32 41 51 62 70 73 76 67 64 76 77 81
11 11 11 10 10 10 10 10 10 10 10 10 10 10 9 9 9 9 9 10 10 11 11 13 13 12 10 7 5 5 9 13 11 11 13 13 15 17 14 12 10 10 9 9 12 12 10 12 14 14 15 14 14 16 14 16 21 20 19 17 18 21 18 17 17 18 17 16 16 18 22 23 25 30 37 41 44 52 61 68 73 77 78 73 72 75 76 84
12 11 11 10 10 11 11 11 10 10 10 10 10 10 10 10 10 9 9 9 10 10 10 12 13 13 13 8 8 10 11 13 11 10 12 13 16 17 13 11 11 11 10 12 15 14 11 10 10 12 13 13 13 13 13 15 19 19 18 15 18 21 18 17 17 17 17 15 17 20 22 22 24 31 36 42 48 52 59 66 68 70 73 72 74 77 78 83
11 11 10 10 10 10 10 10 10 10 9 10 9 9 10 9 10 10 10 9 9 10 11 12 13 13 13 11 13 14 12 14 14 12 13 16 17 16 13 11 12 11 11 12 15 15 13 10 9 9 10 13 14 14 17 16 15 18 18 16 17 19 17 18 18 17 16 17 19 21 24 26 29 33 37 40 45 48 51 56 59 60 64 64 65 68 71 74
11 10 10 10 10 10 10 10 10 10 9 10 9 9 10 9 10 10 10 9 9 10 11 12 13 14 12 12 16 14 12 13 13 14 17 19 17 15 13 12 11 11 13 13 12 14 14 10 9 10 10 12 13 16 20 15 15 18 16 15 16 16 18 20 19 18 17 17 20 22 24 28 30 31 36 40 41 44 46 48 51 53 55 57 58 59 62 66
11 11 10 10 10 10 10 10 10 10 10 10 10 10 9 9 9 9 9 10 9 10 12 14 15 16 13 14 16 13 12 12 12 17 20 18 16 15 15 13 12 13 16 15 14 15 15 13 13 12 11 12 13 16 19 17 19 20 18 18 17 17 19 20 19 18 18 17 19 22 25 27 29 30 35 38 38 41 44 46 49 51 53 56 58 59 62 66
11 11 11 10 10 10 10 11 10 10 10 9 9 9 9 9 9 9 9 9 9 9 11 14 18 17 13 14 14 11 12 14 16 18 17 16 15 16 16 13 12 14 16 17 16 15 15 16 16 14 14 15 15 17 20 23 23 20 21 21 19 19 19 19 18 18 17 17 19 22 25 28 31 34 35 35 37 40 43 47 49 51 54 56 59 61 63 65
11 10 11 11 11 11 11 10 10 10 9 9 10 9 9 9 9 9 8 9 9 9 11 15 18 16 14 16 14 13 16 17 17 17 15 16 15 16 16 13 13 13 15 17 18 15 14 16 15 15 18 16 16 20 23 26 24 21 21 20 18 19 18 18 18 18 17 17 20 21 23 31 36 37 37 34 36 40 42 46 49 51 53 55 57 58 61 62
11 11 11 10 11 10 10 10 9 9 9 10 10 9 9 8 9 8 8 9 8 10 12 15 16 15 16 19 16 16 18 17 16 17 16 16 15 15 14 12 14 13 13 16 18 16 14 16 16 18 21 18 19 25 24 24 23 21 20 19 18 18 20 20 18 18 17 18 21 19 22 35 39 36 37 36 35 39 42 46 48 51 52 54 55 56 57 58
11 11 11 10 10 9 9 9 8 9 10 11 9 8 8 7 8 7 7 8 9 13 15 16 16 16 20 21 17 16 17 17 16 16 16 15 15 17 16 14 15 14 14 14 15 16 15 17 18 21 24 21 23 26 23 22 22 19 20 23 19 16 20 22 19 18 18 20 23 20 22 34 38 34 35 35 35 38 42 45 47 49 51 53 54 55 55 56
12 12 11 12 11 11 11 9 9 10 10 10 8 7 7 7 7 6 8 10 13 15 15 15 15 18 23 20 17 18 17 18 18 17 17 17 16 19 20 17 15 15 15 14 15 16 16 19 22 23 25 25 25 24 20 20 19 18 21 22 17 16 23 25 20 20 20 19 21 22 26 34 36 34 35 35 36 39 42 45 47 48 50 52 53 54 55 56
14 13 13 13 13 13 12 11 11 10 10 9 7 6 6 6 7 8 11 13 14 15 15 17 16 19 24 19 17 18 18 19 18 18 19 18 18 19 19 18 18 17 15 15 15 17 18 22 25 26 26 24 22 22 19 18 17 18 20 19 15 15 21 26 24 23 22 20 20 24 31 37 36 34 36 36 36 39 42 45 47 48 50 51 53 54 54 54
13 12 13 13 13 13 13 13 12 10 9 7 6 6 6 8 9 12 13 11 13 14 15 18 17 19 22 18 18 19 20 21 19 20 20 19 19 17 18 20 20 19 17 16 17 19 20 21 24 24 24 21 19 20 20 19 18 18 19 18 15 16 16 22 30 28 23 25 25 27 34 38 36 35 36 36 36 39 41 44 46 48 51 52 53 53 52 52
12 12 12 11 12 12 12 12 10 10 8 6 7 6 6 9 12 14 12 11 16 16 16 20 19 23 25 20 19 19 20 20 19 22 21 20 19 17 18 21 21 20 19 18 17 18 18 19 21 19 19 19 18 20 21 22 24 25 24 19 18 19 15 20 35 35 28 30 30 30 36 38 35 34 36 37 37 38 41 44 46 47 49 50 51 50 50 50
12 11 11 11 11 11 11 10 10 9 7 6 7 6 9 13 15 15 12 12 22 25 25 27 26 29 27 22 21 20 19 20 20 23 22 20 19 17 18 19 21 19 17 18 18 18 20 20 20 20 22 23 21 22 23 22 26 28 25 24 25 23 22 29 39 37 30 31 32 32 37 38 36 35 35 37 39 39 41 43 45 47 48 50 50 49 49 49
12 11 11 11 10 10 10 10 9 8 7 7 6 8 18 20 19 20 17 16 25 29 27 26 26 27 25 23 21 19 19 21 22 22 19 17 18 19 19 20 20 18 19 23 21 22 25 21 24 29 29 28 25 25 26 24 25 27 26 28 29 25 27 36 40 38 35 35 35 34 36 37 37 35 34 37 39 39 41 43 44 47 49 51 51 51 50 50
12 11 11 10 9 9 9 8 7 7 7 7 6 10 18 18 19 22 22 26 28 25 22 20 21 22 21 22 20 20 22 21 22 22 16 18 22 19 19 20 19 19 23 28 27 27 27 26 31 33 28 28 29 30 31 30 30 31 31 31 28 26 31 37 39 38 36 37 38 36 39 41 38 35 34 35 37 38 40 42 45 47 50 51 52 52 50 49
12 11 9 8 8 7 7 6 6 7 7 7 7 9 10 12 17 17 21 31 30 23 21 22 22 21 21 22 20 21 23 21 22 21 16 18 22 21 24 22 17 21 24 26 28 25 26 31 33 30 28 31 33 34 34 35 36 34 31 30 27 30 37 41 43 39 32 35 40 39 42 43 38 35 35 37 39 41 43 44 45 47 49 51 52 51 49 48
12 10 7 7 7 6 6 5 6 8 7 8 8 8 9 11 14 16 21 29 30 26 25 24 24 23 22 22 22 22 22 23 25 22 18 18 22 28 30 24 20 24 24 25 25 22 26 34 32 31 35 35 32 33 35 36 34 31 29 27 27 34 39 38 44 44 35 35 38 40 44 44 40 38 38 41 45 48 49 50 50 51 52 52 52 51 49 49
10 7 7 6 6 7 6 6 8 9 7 9 8 8 10 10 13 19 23 26 29 29 25 23 23 23 22 22 23 24 24 24 26 25 21 20 24 29 29 28 29 26 26 31 31 29 31 32 33 37 37 32 29 30 34 35 27 24 30 30 28 33 35 36 43 43 39 39 39 41 46 46 44 44 42 43 45 48 50 52 53 54 55 55 54 53 52 51
7 6 6 6 6 7 5 7 9 8 8 9 9 9 10 11 16 22 26 27 27 27 29 28 25 23 23 21 22 26 27 24 26 25 21 21 26 29 29 31 32 26 29 37 32 30 32 32 35 36 31 28 31 32 36 37 27 24 35 38 32 31 33 40 44 41 40 43 42 41 44 46 45 44 44 43 42 44 47 49 51 52 53 53 52 52 52 53
6 6 6 6 6 5 8 13 11 8 11 10 9 11 10 12 19 24 28 27 22 26 33 30 25 24 24 21 21 26 27 25 25 22 21 23 25 31 31 29 30 28 34 37 31 29 31 32 33 32 30 28 29 32 35 38 30 27 37 41 35 32 33 40 43 40 37 39 42 42 40 42 45 45 43 43 42 44 46 47 49 50 50 52 52 52 53 53
6 6 6 5 6 6 11 16 11 9 12 11 10 11 10 14 22 29 28 23 23 29 30 25 22 24 24 20 19 23 23 25 27 23 25 26 25 33 32 28 29 28 37 40 32 33 35 34 34 32 30 25 25 29 33 39 36 33 41 41 36 34 35 37 39 39 33 33 43 43 39 39 43 45 42 42 45 47 47 46 47 48 50 53 55 56 56 56
5 5 5 4 6 8 10 12 10 9 10 11 10 11 14 19 27 35 28 21 26 29 27 25 22 20 24 23 20 24 25 27 27 22 26 28 26 31 28 29 32 27 36 37 25 35 43 39 43 40 29 24 28 31 34 42 41 39 43 39 35 36 36 35 36 35 30 33 41 39 40 43 44 47 44 42 47 49 49 47 46 49 52 54 57 58 59 60
4 4 4 5 8 9 10 10 10 9 10 11 11 14 21 23 30 34 24 18 26 28 26 25 21 20 28 27 22 26 27 29 30 27 31 30 26 27 24 28 34 30 36 33 24 37 46 44 47 39 29 29 32 32 38 44 39 39 43 40 39 38 37 35 33 33 32 40 43 34 35 42 45 50 46 44 49 48 49 48 47 51 54 56 57 58 60 62
5 3 4 7 9 9 10 10 10 11 11 13 15 19 26 29 30 25 15 17 27 29 26 25 26 28 29 26 22 24 27 30 33 33 32 29 24 25 27 30 32 30 31 31 35 45 49 52 51 38 33 36 33 34 43 45 37 40 44 39 36 34 32 31 28 30 35 43 42 31 32 37 43 49 46 47 49 44 47 49 49 53 54 56 57 58 61 62
7 4 5 9 10 10 11 11 11 12 14 18 21 26 32 32 25 16 13 21 28 29 28 27 32 34 30 28 24 25 28 30 33 34 31 29 27 26 27 31 30 26 20 21 36 46 45 45 43 41 43 39 33 33 43 48 43 42 37 27 26 25 25 28 28 33 41 44 37 30 32 34 44 55 52 50 48 41 46 50 49 54 56 59 62 64 70 73
8 6 8 11 11 10 10 11 12 13 16 21 23 29 33 26 17 16 17 23 28 29 32 33 33 32 32 31 27 28 30 28 30 36 35 31 32 33 32 35 34 30 22 18 24 31 34 34 35 43 44 35 30 28 33 40 37 32 26 22 29 30 31 36 33 33 37 37 32 30 33 35 50 63 55 50 48 43 47 50 52 58 62 68 73 77 81 83
10 8 10 12 11 9 9 11 14 13 15 21 25 29 28 16 16 25 23 21 30 34 37 39 33 30 29 28 27 29 32 31 29 32 33 27 28 33 33 36 39 36 29 24 21 21 28 33 32 35 34 30 30 27 30 33 28 26 26 27 35 41 52 57 46 41 43 39 33 31 37 47 62 68 56 50 53 52 55 60 64 69 71 77 82 84 88 89
10 9 12 12 9 8 8 12 15 13 13 23 30 27 23 17 20 29 26 23 34 39 38 38 34 30 28 26 29 30 29 32 32 29 29 25 25 30 31 34 39 40 35 30 26 25 30 32 31 31 30 28 31 34 39 39 32 28 25 27 35 43 59 66 56 56 58 49 39 36 45 62 73 70 56 54 61 65 69 73 76 79 81 84 84 82 85 89
10 11 12 10 9 8 9 13 14 12 14 25 30 23 21 22 20 23 29 33 38 38 37 38 33 25 23 25 30 32 29 29 30 29 30 30 31 33 34 35 38 43 44 38 31 30 30 29 32 35 31 27 31 37 39 40 36 27 22 29 37 38 45 52 50 50 55 55 51 50 59 67 69 64 55 56 63 68 74 78 79 80 81 80 77 72 72 81
10 12 12 10 11 9 10 12 11 12 17 22 25 24 26 30 28 30 40 47 45 42 38 35 29 21 20 23 26 33 35 29 25 26 29 34 38 38 37 39 42 44 48 46 37 34 36 31 29 33 33 27 31 36 35 36 35 28 28 34 35 33 37 46 47 39 45 54 49 49 61 66 67 68 60 58 62 64 69 76 76 76 76 73 70 65 64 73
11 14 14 11 11 9 9 10 9 15 22 24 28 30 29 36 45 47 51 54 52 48 36 26 26 27 24 23 26 33 37 29 25 25 24 30 38 41 39 42 44 42 47 49 40 37 42 37 27 27 32 31 34 39 37 36 33 30 34 35 30 33 35 39 45 43 44 46 36 40 58 65 69 75 67 61 65 64 65 72 74 70 69 67 63 58 57 65
12 18 17 12 11 9 8 8 11 18 24 28 36 37 34 42 54 59 61 63 57 45 31 22 28 30 24 25 29 36 40 33 26 24 24 29 38 44 45 44 42 39 45 51 43 35 38 38 29 24 27 29 31 36 36 33 30 29 34 31 29 40 39 33 41 47 48 48 42 43 54 61 66 70 66 62 63 61 60 67 70 61 57 59 58 51 49 54
12 21 20 13 12 10 9 10 14 21 26 30 35 38 41 48 58 65 66 66 57 39 27 26 29 28 26 30 31 35 39 35 28 26 29 32 38 46 49 48 46 42 45 48 41 34 35 35 30 23 24 26 25 31 36 34 30 28 31 30 31 39 37 33 39 44 49 54 52 48 48 56 61 58 56 55 53 55 57 59 60 54 50 53 53 48 45 48
13 22 19 12 12 12 10 9 15 25 31 33 33 38 47 52 58 63 61 61 56 38 26 28 29 27 30 33 33 34 32 29 29 30 32 35 40 48 51 51 53 52 53 52 42 37 35 30 27 22 20 24 29 33 35 35 33 33 36 40 41 39 34 34 40 45 49 51 55 58 51 50 54 48 46 48 46 48 51 51 51 49 47 47 48 46 44 47
15 22 18 12 13 13 11 14 21 29 32 34 35 45 57 56 52 54 54 56 53 40 32 33 32 31 33 33 33 33 29 27 30 32 35 38 39 47 55 61 65 62 59 50 39 40 38 29 30 26 17 23 35 36 33 32 32 33 38 42 43 42 43 43 43 47 50 48 55 63 55 49 50 43 40 43 42 44 47 47 47 46 44 45 46 44 43 47
18 21 16 13 14 14 16 26 33 31 30 38 45 53 60 55 46 46 49 49 45 38 36 38 37 36 37 36 35 33 30 30 33 33 38 40 39 45 56 66 75 76 65 43 34 45 45 33 33 28 21 29 36 35 35 34 31 31 35 38 39 43 48 47 45 48 49 46 47 49 45 47 50 41 39 42 41 44 47 45 45 45 44 45 44 42 41 43
22 21 15 12 13 14 19 31 37 36 39 49 55 55 56 51 42 41 46 45 41 37 35 39 43 41 40 41 38 34 34 37 38 36 37 39 42 50 58 68 76 72 57 38 36 49 45 32 33 27 22 34 38 36 38 37 33 34 37 40 42 48 54 54 53 54 52 47 44 38 35 43 48 41 38 41 42 44 44 43 44 44 44 43 43 41 39 41
19 20 17 13 11 15 24 32 35 39 43 46 47 48 51 51 47 45 47 45 43 38 33 38 46 42 40 42 38 36 39 40 40 39 38 36 42 53 58 63 66 56 48 46 50 56 44 26 28 25 18 28 34 34 37 35 34 35 37 43 49 56 65 65 59 57 54 47 41 38 36 39 43 43 39 40 43 42 41 42 43 42 42 42 41 39 37 41
17 18 18 15 10 16 31 37 35 37 39 39 40 41 42 46 49 50 49 47 47 44 37 39 45 43 40 39 37 37 37 37 39 41 41 36 39 52 54 53 56 54 57 60 57 57 45 25 24 25 18 22 27 31 37 38 35 35 40 50 55 61 70 66 52 46 44 40 37 40 41 34 33 38 40 40 40 38 38 41 42 42 41 41 39 37 37 42
20 19 21 19 15 20 33 37 32 31 33 34 36 37 35 38 43 46 48 47 46 45 41 41 44 42 39 37 36 36 36 38 40 44 49 45 39 46 49 51 55 56 60 61 53 53 47 29 27 31 25 25 30 34 40 40 36 39 50 59 57 59 67 62 47 37 37 42 42 37 35 32 27 27 30 35 38 38 39 41 42 42 40 39 37 36 41 46
21 25 29 27 24 25 30 35 34 31 31 31 34 38 38 37 38 38 42 44 42 44 42 41 43 43 41 41 37 35 39 40 41 51 61 56 45 41 43 50 51 48 56 61 52 49 43 32 42 51 40 33 34 34 37 40 38 41 53 62 56 55 63 60 49 40 39 46 41 26 26 34 30 23 27 37 39 39 41 42 42 42 39 37 34 35 44 48
24 30 34 32 32 31 29 35 41 39 37 34 35 39 38 37 40 40 40 40 40 43 39 37 43 44 46 50 41 36 41 39 45 62 64 56 52 43 38 46 46 38 45 50 46 48 41 34 55 70 51 34 33 35 37 38 39 42 49 54 51 53 63 65 59 49 45 46 38 26 30 36 31 26 32 41 42 42 44 43 42 42 38 35 34 36 43 46
24 28 31 32 35 36 33 38 41 39 38 34 34 41 39 38 44 49 49 43 37 39 38 39 46 45 44 48 42 41 46 42 48 65 67 63 63 49 35 40 38 29 32 37 44 51 44 40 61 72 56 37 32 36 38 37 40 47 49 47 45 47 55 61 59 48 45 46 38 32 36 36 31 34 38 42 45 44 42 41 41 40 37 35 34 37 43 46
22 24 28 29 33 36 35 36 35 32 32 30 33 43 43 40 44 49 55 54 43 39 41 42 47 48 46 44 42 49 55 49 48 57 65 67 61 46 37 35 34 33 31 36 49 53 42 43 60 63 49 36 34 38 40 36 37 45 46 43 43 43 46 55 56 47 47 49 40 38 45 42 37 40 42 43 46 43 39 40 41 39 36 34 35 40 46 48
17 19 22 25 32 36 33 31 30 28 28 31 37 44 44 43 46 48 55 64 60 53 53 50 46 45 45 46 50 57 59 56 54 55 60 59 46 39 36 31 35 38 33 41 58 55 38 36 45 45 32 24 29 33 30 31 40 50 50 43 40 42 44 48 48 44 46 49 48 51 52 42 37 40 42 42 43 42 40 40 40 39 35 35 38 44 49 49
15 16 19 24 31 35 33 29 28 28 32 42 49 51 50 49 51 50 49 58 66 63 60 62 54 42 42 50 58 63 65 66 63 55 50 44 34 31 31 31 36 36 34 44 56 58 56 43 31 31 27 19 20 19 19 32 46 50 47 41 38 42 42 39 36 34 34 39 45 50 43 32 34 40 41 41 40 42 42 41 41 41 37 37 42 45 47 50
Wind_Speed
6 6 6 6 6 7 7 7 7 8 8 8 8 8 7 7 7 7 7 7 7 7 7 6 6 6 5 6 7 8 8 9 9 7 5 6 7 7 7 6 6 7 7 6 5 6 5 5 6 7 7 8 10 9 8 9 9 7 6 7 7 7 6 3 3 2 3 3 1 5 3 4 2 5 2 2 4 6 10 11 12 13 15 16 12 7 6 7
6 5 5 6 6 6 7 7 7 8 8 8 8 8 7 7 7 7 8 8 8 8 7 7 6 6 6 6 7 7 8 9 6 5 6 6 5 5 6 6 7 7 7 5 4 5 6 6 7 8 9 9 9 8 8 9 10 9 6 6 8 7 2 4 3 3 4 5 4 3 4 4 5 5 2 2 5 8 9 8 8 12 15 16 12 8 6 7
5 5 5 5 6 6 7 7 8 8 9 9 9 8 8 7 7 7 7 8 8 8 8 7 7 7 7 6 7 7 8 7 3 3 4 3 3 4 5 6 7 7 7 5 4 5 6 6 6 8 10 9 9 8 8 8 9 11 8 6 7 6 3 2 3 4 3 6 6 1 7 9 9 8 4 2 5 10 11 10 7 6 14 14 9 7 7 7
5 5 6 6 6 7 7 7 8 9 9 10 10 10 10 9 8 8 8 8 8 8 8 8 7 8 8 7 7 7 8 7 4 4 3 2 3 4 5 7 7 7 6 6 5 5 6 7 7 9 10 9 9 9 8 9 8 8 8 8 6 3 4 0 1 3 2 4 6 2 6 9 10 13 11 5 3 7 10 12 11 11 15 12 6 6 7 7
6 6 6 6 6 7 7 8 8 9 10 11 11 11 11 11 10 10 9 8 8 8 8 8 8 8 8 8 7 7 8 4 4 5 4 3 4 5 6 7 7 7 6 5 5 5 5 8 7 9 9 9 9 8 10 12 8 7 8 12 9 3 5 1 5 1 1 2 5 4 4 7 10 14 18 13 6 5 9 11 11 10 10 8 5 7 8 7
7 7 6 6 7 7 8 8 9 9 10 10 11 11 11 11 11 11 10 9 9 9 9 8 8 8 7 7 7 6 6 3 1 4 5 4 4 6 7 7 7 6 5 4 4 4 5 7 9 10 10 9 9 8 10 11 8 7 8 12 10 6 7 0 4 3 2 3 4 2 6 11 12 13 18 19 13 8 9 9 10 10 9 8 9 9 9 9
7 7 7 7 6 7 8 8 9 9 10 10 11 11 11 11 11 12 11 11 9 9 9 8 8 7 7 6 5 4 4 3 4 5 5 5 6 7 7 8 8 7 5 4 4 5 5 7 10 10 9 8 8 9 8 7 8 9 9 8 5 5 6 1 4 3 2 1 3 8 10 9 10 10 14 18 15 10 11 11 12 14 15 15 15 14 13 13
7 7 7 7 7 7 8 9 10 10 11 11 11 12 12 12 12 12 12 12 10 10 9 9 8 7 7 6 5 6 4 2 4 5 5 6 6 6 7 8 8 7 5 4 4 5 5 8 10 9 8 7 6 6 3 4 9 11 11 9 3 4 4 3 5 4 5 7 10 13 14 13 15 15 16 16 13 12 13 14 15 17 20 20 21 20 19 18
7 7 7 7 7 8 9 10 11 11 12 12 13 13 13 13 13 12 12 12 11 10 9 9 7 6 6 5 6 6 2 2 5 5 6 7 7 6 8 9 9 6 5 6 5 5 5 6 7 6 8 7 5 4 3 6 6 6 10 9 4 5 4 4 4 6 7 8 11 14 14 13 12 11 15 14 11 12 13 15 17 18 21 21 22 22 21 20
7 7 7 8 9 9 10 11 12 13 13 14 14 14 14 14 13 13 13 12 12 11 9 8 6 6 5 4 7 5 1 3 6 6 7 8 8 8 10 10 8 5 4 6 5 4 5 5 5 5 7 7 5 4 4 5 2 2 5 5 4 3 3 3 3 7 8 7 10 13 12 9 7 5 8 11 11 12 14 17 18 20 22 21 21 22 21 21
8 8 9 9 10 11 12 13 13 14 14 14 14 14 15 15 14 14 13 12 12 11 9 7 6 5 4 3 6 3 2 6 7 7 9 9 8 10 12 11 8 5 4 5 4 4 6 5 4 5 4 3 4 4 4 4 4 3 3 4 5 5 3 4 4 8 9 6 9 14 13 10 11 8 8 10 10 12 15 18 19 21 22 21 22 22 23 22
9 9 10 11 11 12 13 13 14 14 14 14 15 15 16 15 14 13 12 12 11 10 9 7 5 4 3 2 3 3 4 6 6 8 9 9 9 11 12 11 8 6 4 4 4 5 5 4 4 5 4 3 3 2 1 2 4 3 4 6 7 7 6 5 5 8 8 7 11 12 9 8 10 9 9 9 10 12 15 17 19 20 20 21 22 23 24 23
10 10 11 12 12 13 13 14 14 14 14 15 15 16 15 14 13 13 12 11 10 9 7 5 4 3 2 1 1 3 4 4 7 10 10 11 11 11 10 9 7 7 6 4 5 6 5 2 3 6 5 6 4 2 2 2 3 4 5 6 6 7 6 4 4 7 7 7 10 7 4 4 9 9 8 6 8 12 15 17 18 18 19 20 22 23 24 24
11 11 12 12 13 13 13 13 13 14 14 15 16 15 14 13 13 13 12 10 8 6 4 4 4 3 2 1 2 3 4 6 9 10 10 9 8 7 8 7 7 7 7 7 7 6 5 2 2 5 5 5 4 3 4 5 5 4 4 4 5 7 3 6 4 7 6 8 10 6 5 3 8 8 7 7 8 12 15 16 17 18 19 20 21 22 24 24
11 12 12 13 13 13 13 13 13 14 15 16 15 14 13 13 13 11 9 7 5 4 4 5 4 3 2 2 3 4 7 10 10 10 9 7 6 4 6 8 8 7 7 7 7 5 4 2 2 4 2 2 3 4 6 5 5 5 4 5 6 6 2 8 5 3 3 7 12 6 2 4 7 8 8 8 10 13 16 16 17 18 18 19 19 21 22 23
12 12 13 13 13 13 13 13 14 14 15 15 13 13 13 13 11 9 7 5 5 4 4 5 4 2 1 1 2 4 9 13 10 11 11 9 8 6 7 8 7 6 6 6 5 4 2 1 3 4 2 2 4 4 5 5 6 6 6 6 5 5 3 5 5 3 3 7 10 7 2 5 7 8 8 9 10 13 16 16 17 17 17 17 18 18 19 20
12 13 13 13 13 13 13 12 13 14 14 13 12 13 12 10 8 6 6 6 5 3 5 7 3 4 3 3 2 5 11 13 10 11 11 11 12 9 7 6 5 4 4 4 4 3 2 2 3 4 4 5 3 3 5 6 5 4 4 5 6 5 6 3 5 5 1 4 5 3 5 8 9 9 9 9 10 13 15 16 16 16 17 17 17 18 18 19
13 13 13 14 13 13 13 12 13 13 13 12 11 12 10 8 6 4 9 8 5 2 4 9 4 5 4 6 4 9 13 10 8 13 14 13 13 10 6 4 3 2 2 3 3 3 4 3 3 3 4 5 3 3 5 5 6 5 4 5 5 5 8 5 4 4 1 5 6 8 10 10 10 9 9 9 10 13 14 15 15 16 16 16 17 17 17 19
14 14 14 14 14 13 13 12 13 13 12 11 10 10 7 6 4 4 10 9 6 3 1 8 7 0 3 7 8 13 11 7 9 15 16 13 12 9 6 4 2 3 5 3 3 3 2 3 4 4 2 2 3 4 6 8 9 9 9 8 8 7 6 0 6 4 4 7 6 7 9 10 10 9 9 10 10 12 14 14 14 14 15 15 15 16 16 18
15 15 15 15 14 14 14 13 14 13 11 10 10 9 4 4 2 3 9 11 11 8 5 7 8 5 3 5 12 12 7 6 10 16 17 14 12 7 4 3 3 5 3 3 1 1 2 4 2 3 5 7 8 8 8 9 9 9 9 8 9 9 4 5 8 4 3 4 5 8 10 10 9 8 9 10 10 11 12 12 13 13 13 14 15 15 15 16
16 16 16 16 15 15 14 14 14 12 10 9 9 6 2 3 3 1 6 10 12 10 9 11 11 9 6 6 13 12 6 3 7 17 20 15 13 6 2 3 4 2 2 3 3 0 2 3 4 7 8 8 7 7 7 8 7 7 8 7 9 8 1 6 6 3 0 1 5 9 10 9 9 8 8 9 9 9 10 11 12 13 13 13 14 14 14 14
16 17 17 16 16 15 14 14 13 10 10 9 8 5 2 3 2 2 4 7 9 9 10 12 13 11 9 9 13 11 8 5 5 19 23 17 13 7 6 6 3 2 3 2 3 2 2 2 7 8 7 6 5 4 5 6 7 7 6 6 7 3 4 5 5 3 1 2 6 9 8 8 8 8 7 8 8 8 10 11 11 12 12 12 12 12 12 12
17 17 16 15 15 14 14 14 11 9 10 9 7 6 3 3 3 4 5 5 6 8 8 9 11 13 11 11 13 9 9 8 7 18 26 21 14 7 7 7 3 2 3 5 5 4 2 5 8 7 6 6 5 3 5 6 6 6 5 6 5 1 2 1 2 4 1 1 7 9 7 6 7 7 7 8 10 11 11 11 11 11 12 12 12 11 11 12
17 17 15 15 14 14 14 12 9 9 10 8 7 7 4 3 3 5 5 3 4 5 6 7 11 15 14 12 13 8 8 10 9 16 24 23 14 6 5 6 3 2 4 6 6 2 4 6 7 6 4 6 7 5 5 5 6 5 2 5 6 4 4 2 5 6 3 3 9 10 4 5 8 8 7 8 10 12 11 12 12 12 12 12 12 12 12 12
16 16 15 15 14 14 13 9 8 10 10 8 8 8 4 3 2 5 4 3 3 3 4 5 8 14 17 15 14 5 4 9 12 17 23 22 15 5 3 3 3 4 6 7 5 1 6 5 5 7 5 7 6 4 8 7 7 4 4 6 8 8 6 4 8 7 3 3 10 10 4 3 9 9 8 8 9 10 10 11 11 11 11 10 10 11 11 11
16 16 15 15 14 14 10 6 8 10 9 8 8 7 4 3 1 4 3 3 2 3 4 5 5 11 15 15 14 3 4 6 12 20 24 19 13 6 4 3 2 5 6 5 2 1 4 4 4 7 7 7 4 4 9 9 7 4 4 7 7 7 5 4 7 6 4 2 9 12 7 1 6 9 10 10 8 9 9 9 10 9 9 9 9 9 9 10
16 16 16 16 13 11 7 5 8 10 8 7 8 7 3 3 0 3 2 3 3 3 5 6 6 10 12 14 18 5 1 7 9 17 22 17 14 7 5 6 2 5 4 2 2 2 5 8 8 9 7 6 7 5 8 9 7 3 4 7 7 5 4 5 6 7 6 2 7 12 9 5 3 6 10 11 9 9 8 8 8 8 9 9 9 9 9 10
17 17 16 15 12 9 7 6 9 10 8 7 8 6 4 3 1 2 3 2 3 4 4 5 5 10 9 11 18 10 4 10 6 12 20 19 16 6 6 9 5 5 6 4 4 5 6 9 9 11 9 7 7 7 8 8 5 3 4 6 6 5 6 6 6 7 6 4 3 8 9 6 2 7 8 8 9 8 8 7 7 8 8 8 9 9 9 10
17 16 15 13 10 9 8 9 10 10 9 8 7 6 4 2 2 3 3 1 2 3 4 6 5 10 11 6 12 13 9 11 7 10 16 18 18 9 3 8 6 6 5 4 6 5 5 6 6 8 8 7 8 7 6 5 4 4 6 7 7 7 7 7 7 7 6 6 8 5 8 6 1 6 6 6 7 7 7 7 6 7 7 7 7 7 7 7
16 15 13 11 9 10 10 10 10 10 9 8 7 5 3 1 2 3 0 1 2 2 4 7 5 9 13 6 8 12 11 10 9 10 11 14 19 16 4 4 8 5 2 6 7 5 4 2 3 6 6 6 8 6 2 5 6 6 7 7 7 7 6 6 5 4 5 5 5 6 3 6 2 4 3 1 2 3 7 7 6 8 6 6 5 5 6 5
16 14 11 10 10 10 10 9 10 9 8 8 7 5 1 1 2 1 2 1 2 4 3 5 6 7 10 7 7 10 8 9 11 10 10 10 15 21 11 6 10 5 0 5 5 7 6 3 3 3 4 8 9 5 3 6 7 6 6 6 7 5 4 4 4 4 5 3 4 7 3 6 4 3 5 5 5 2 6 6 7 8 6 6 5 5 5 4
15 12 9 10 10 11 10 9 9 9 8 8 7 4 3 2 2 3 3 1 2 5 3 2 6 7 5 4 6 9 5 6 10 8 8 8 8 13 12 8 9 5 4 7 4 3 5 6 4 2 2 11 11 6 1 4 4 4 6 7 8 6 3 4 4 4 5 2 5 5 4 5 1 5 6 7 7 5 5 5 7 8 7 6 5 4 3 3
13 10 8 10 11 12 11 9 9 10 9 9 6 2 3 0 4 3 4 4 2 3 3 2 5 7 5 3 6 7 3 4 10 7 5 7 7 8 11 12 13 8 4 7 6 5 2 6 7 3 2 12 12 7 5 4 6 7 7 7 7 6 7 7 6 7 6 3 4 5 4 2 3 5 5 7 8 8 9 9 8 8 6 4 3 3 2 3
11 7 8 11 12 12 11 9 10 10 8 8 4 2 1 4 3 1 2 5 3 2 3 2 5 4 3 5 5 6 2 4 7 8 6 7 7 7 8 12 15 10 6 5 4 6 3 2 8 7 4 10 10 6 5 7 6 5 6 7 6 6 5 5 6 7 7 8 7 2 1 2 2 3 4 8 9 9 9 9 8 7 4 3 2 3 4 4
8 6 9 13 13 11 9 9 10 9 6 6 3 2 5 5 2 1 3 3 2 3 3 1 4 3 4 5 4 5 3 3 5 6 8 8 8 9 8 9 14 11 6 5 3 5 6 3 5 4 4 8 8 4 6 7 4 3 5 5 6 5 3 4 7 7 6 8 7 1 2 3 4 4 5 7 7 6 6 6 6 4 3 1 1 4 6 5
6 7 12 14 13 10 9 9 8 7 4 3 3 6 5 3 2 3 4 3 3 5 6 3 3 4 5 4 4 6 3 2 5 4 5 7 8 10 9 6 10 11 6 5 3 4 6 3 4 2 3 6 6 4 6 8 5 4 5 6 7 4 2 5 7 6 6 7 4 1 2 3 3 3 5 5 4 4 4 4 4 2 2 1 4 4 6 6
5 8 13 14 13 11 9 8 8 8 9 6 6 6 2 2 3 3 4 5 3 4 5 1 3 5 5 4 5 9 7 3 6 5 4 4 4 9 11 5 7 10 7 3 2 3 4 3 3 4 4 4 1 3 3 9 9 5 4 7 8 3 2 4 7 6 6 7 6 2 3 2 1 1 4 5 5 4 4 5 4 3 3 4 6 6 7 6
5 7 14 15 13 13 10 8 10 13 15 11 8 6 2 2 4 4 5 6 4 3 3 4 3 3 4 5 4 6 8 5 6 6 5 4 3 7 9 5 6 11 8 4 2 2 4 3 2 2 3 2 1 2 0 8 11 6 3 6 6 2 2 5 5 6 7 7 7 4 2 2 2 2 1 4 6 5 5 5 5 5 5 7 7 8 8 7
4 4 11 14 11 14 12 9 11 12 11 8 6 5 3 3 4 5 5 4 3 3 3 4 3 2 5 5 2 3 5 6 7 5 5 5 3 6 7 5 6 11 10 6 4 4 4 2 1 1 2 2 0 3 3 4 9 6 3 5 5 3 5 5 4 5 6 7 8 7 5 2 3 2 1 2 4 5 5 5 6 6 7 8 8 8 8 8
3 3 8 11 9 12 13 17 20 15 8 6 5 4 3 3 3 4 6 4 2 2 3 3 2 3 4 2 1 3 4 5 6 5 5 5 3 4 7 6 7 11 10 7 4 5 3 2 3 3 2 2 1 5 5 5 7 7 6 6 6 5 4 4 3 1 4 7 7 8 8 2 4 1 1 1 1 3 5 5 6 7 8 8 8 8 9 9
3 2 7 11 8 8 12 20 20 12 5 6 7 4 2 2 3 4 6 5 3 4 4 4 4 3 2 2 2 3 3 4 6 5 4 6 5 3 5 7 7 8 9 6 2 5 4 2 4 5 2 2 3 4 5 6 7 7 6 6 6 6 5 5 3 2 3 5 4 7 9 2 4 1 1 1 1 2 3 4 5 7 8 8 8 9 10 9
6 2 6 9 7 9 15 16 10 6 5 5 5 5 3 2 2 3 4 4 3 3 3 3 5 4 3 3 3 3 3 4 5 5 4 5 7 5 5 8 7 6 5 3 1 3 3 3 5 4 3 5 7 6 4 4 6 8 8 6 5 5 5 4 5 4 5 5 3 6 8 2 3 2 1 1 1 3 3 3 5 7 8 8 9 11 11 9
10 6 6 6 7 11 16 11 5 7 6 3 4 5 4 3 3 3 4 4 3 1 2 2 2 3 4 3 3 3 3 4 4 4 4 4 5 4 5 8 7 5 4 2 2 3 2 2 5 4 2 6 7 5 2 2 2 4 6 6 5 4 3 4 5 5 5 5 4 6 8 2 3 3 3 3 3 3 3 5 8 10 10 10 11 12 12 9
15 15 14 9 5 7 9 5 4 6 5 5 7 6 5 7 6 4 5 6 4 2 2 3 2 4 4 3 3 4 3 3 4 4 3 3 3 3 4 7 7 6 5 3 4 5 4 2 5 5 2 2 2 2 1 3 2 3 5 5 5 4 4 4 3 3 3 4 6 7 9 3 3 5 4 4 4 3 5 8 11 12 12 12 13 14 12 9
11 13 18 17 13 12 10 7 7 7 6 7 7 4 5 6 5 5 5 6 6 4 3 2 2 3 3 1 2 6 6 5 3 2 2 2 2 1 3 6 6 6 4 3 5 6 4 3 5 5 5 5 4 3 2 2 4 2 3 5 6 5 5 3 3 3 3 6 8 7 7 6 2 3 4 5 4 6 9 11 12 12 13 14 15 14 11 10
3 4 9 16 20 20 16 11 9 8 6 6 5 4 4 4 3 4 4 4 5 6 4 4 1 1 2 2 3 6 8 7 5 3 1 2 1 0 3 3 4 5 4 4 6 4 2 2 5 4 4 4 5 5 3 4 6 3 3 5 5 4 5 4 3 3 5 7 7 4 7 12 12 8 5 4 5 8 9 10 11 13 15 16 16 14 11 11
5 3 2 5 11 15 13 10 8 5 3 2 3 3 3 3 3 2 3 4 5 5 4 5 5 3 3 2 2 4 5 6 6 4 1 2 2 2 3 3 3 5 4 3 6 3 3 1 4 2 4 5 5 5 3 3 4 3 1 2 3 3 4 3 3 3 4 6 7 8 13 15 15 14 10 4 5 7 8 10 12 17 20 18 16 15 12 12
5 4 4 4 4 4 5 6 7 7 6 4 3 2 3 4 3 3 3 2 3 4 3 3 6 7 4 2 1 2 3 4 4 2 1 1 3 3 2 3 1 6 4 2 4 3 3 2 3 1 5 6 5 3 3 3 2 1 1 3 2 2 2 1 2 3 3 4 9 14 17 16 15 13 7 4 4 7 10 13 17 21 23 19 18 17 14 13
10 8 7 8 6 4 5 6 5 8 8 5 4 3 4 6 5 3 2 1 2 4 6 3 4 7 4 2 2 2 1 1 2 1 1 0 2 3 1 1 1 5 6 3 3 2 2 1 2 1 6 6 4 3 3 4 3 3 3 3 3 2 3 3 5 6 6 8 12 14 17 17 12 7 4 3 5 8 13 19 22 24 22 19 18 17 14 13
9 9 10 13 12 7 6 4 2 6 6 4 4 3 3 6 5 3 3 4 2 3 5 4 4 5 6 4 3 4 3 3 3 1 2 2 1 1 2 2 2 5 6 3 2 3 2 1 2 2 4 3 5 4 3 4 4 4 4 4 3 4 4 4 5 6 7 10 12 13 15 13 4 4 4 6 8 12 18 23 24 21 19 18 18 16 13 14
14 18 19 16 8 5 4 3 1 4 4 4 3 2 2 5 5 4 3 5 4 3 3 3 3 3 5 7 7 6 5 5 5 4 2 1 1 2 2 2 3 5 5 3 2 3 4 2 1 2 5 0 4 4 4 3 2 4 5 6 5 4 4 4 5 6 7 11 13 12 11 7 3 4 8 9 11 15 21 24 22 19 18 18 16 13 13 14
19 18 17 14 7 4 3 1 1 2 3 3 3 2 2 4 3 2 2 2 4 4 2 0 1 1 3 6 6 4 3 3 4 3 3 3 4 5 4 4 3 3 4 2 1 1 2 3 1 2 5 3 3 5 2 2 2 2 3 4 4 4 5 6 7 8 9 10 10 9 7 7 7 9 10 10 13 18 23 23 21 19 19 17 13 12 13 14
Wind_Direction
39 34 24 20 15 13 10 8 9 8 7 4 359 355 348 342 337 333 336 333 333 336 334 329 315 309 301 294 298 303 315 322 317 301 268 243 238 236 243 263 288 300 301 305 321 313 287 244 218 205 209 203 211 219 199 205 210 208 228 234 240 245 255 275 243 276 328 312 67 82 28 319 39 79 83 115 138 123 99 83 82 79 54 37 35 57 114 142
44 42 36 29 21 17 13 13 13 11 11 8 5 2 355 351 344 340 340 336 335 335 335 335 323 314 307 300 305 310 320 326 316 264 236 232 231 233 249 274 296 301 301 305 314 291 267 240 219 205 211 209 204 201 195 200 203 213 232 234 241 252 299 30 332 317 316 301 326 45 58 37 29 34 344 206 142 116 92 63 81 89 52 29 26 42 90 109
51 53 48 35 27 24 23 19 12 8 5 2 360 355 352 347 341 340 338 338 338 338 339 336 330 321 312 311 311 318 325 318 288 211 204 212 234 252 275 295 304 305 298 291 284 266 249 238 226 214 222 223 207 199 206 199 199 223 235 241 249 266 302 22 313 304 318 304 298 322 90 76 46 28 345 277 120 91 62 27 10 15 8 7 25 53 95 108
53 51 46 38 35 29 23 16 11 8 4 2 359 354 352 348 344 340 334 333 333 335 338 334 333 324 314 314 313 321 320 296 226 197 215 262 273 287 303 307 309 306 298 289 281 267 238 226 226 227 233 238 219 210 220 198 194 224 224 246 269 317 295 340 30 309 327 298 289 252 120 98 65 44 24 360 135 86 42 18 355 337 340 348 24 71 101 111
48 46 43 39 35 26 20 14 12 10 7 6 2 1 358 355 352 346 339 333 329 331 332 332 331 323 319 316 317 324 310 290 172 200 257 294 292 306 313 311 309 305 298 288 288 285 243 227 230 232 235 246 225 212 232 211 206 242 232 250 266 297 284 81 89 67 63 273 262 238 153 115 84 51 36 34 55 50 13 1 358 347 349 9 61 88 100 101
47 44 38 34 27 20 17 12 10 7 5 4 1 1 358 357 355 351 348 336 330 328 327 330 326 322 323 318 322 326 303 309 144 237 274 303 307 318 320 319 315 308 299 291 298 283 246 229 226 229 230 242 233 224 237 211 202 243 243 249 254 261 271 26 98 112 109 251 243 177 109 107 98 65 50 51 50 38 21 18 23 23 34 59 81 88 93 89
41 36 30 24 17 12 8 4 1 357 355 353 351 350 349 350 348 349 349 341 335 326 324 327 323 323 323 328 336 308 275 297 296 269 284 301 308 318 321 325 322 315 306 295 292 271 253 235 228 236 238 242 247 239 233 204 208 238 256 256 239 245 257 105 98 114 118 177 119 107 99 95 97 81 59 55 50 45 47 50 53 55 63 72 75 77 82 83
30 26 19 10 4 358 353 350 347 343 341 339 337 336 335 337 337 339 340 340 337 325 325 321 319 326 321 342 338 281 238 224 274 280 296 302 310 319 323 328 322 318 309 290 275 269 262 243 238 245 249 249 255 244 221 226 229 229 249 259 222 222 226 115 110 120 114 119 111 100 88 78 87 84 63 53 50 55 60 63 66 68 69 69 69 70 75 74
18 14 6 358 352 345 341 338 335 333 332 330 329 327 326 326 326 328 327 330 331 326 325 318 317 318 317 345 316 281 196 198 275 300 309 311 315 324 335 335 324 318 306 290 278 268 262 254 251 258 270 272 267 255 226 236 241 229 246 258 240 215 186 132 140 149 135 135 126 104 93 89 94 87 63 53 56 64 68 69 70 72 70 68 66 66 70 72
6 359 352 346 340 336 333 330 329 328 327 326 325 323 322 321 320 320 320 320 322 324 324 320 314 308 321 340 297 285 102 282 298 313 309 315 317 324 337 335 325 318 294 285 280 260 257 269 278 278 282 279 266 253 220 227 296 321 257 266 254 214 164 165 174 164 153 156 143 113 99 84 72 86 71 60 66 73 75 73 71 72 71 69 69 66 67 71
355 348 341 336 332 330 328 326 326 325 325 325 325 325 323 321 320 318 316 315 318 322 323 322 313 312 328 311 291 303 345 306 314 318 312 318 313 317 329 328 321 310 285 286 285 262 255 267 273 265 267 271 255 225 210 243 297 314 268 267 237 202 182 193 178 169 163 163 149 119 103 78 56 69 79 70 76 79 78 77 73 73 73 71 70 67 65 66
344 339 334 330 328 326 325 323 323 324 326 328 328 328 325 323 322 320 318 316 317 318 319 322 322 332 335 298 309 328 316 317 328 323 317 316 307 310 317 316 316 302 284 286 287 280 273 266 240 243 265 306 283 222 204 251 269 273 255 263 238 208 206 187 165 177 181 173 156 138 120 79 60 76 84 82 87 84 82 79 76 75 75 73 71 70 67 66
337 334 331 328 326 324 323 323 323 326 330 331 330 328 328 326 324 322 320 318 320 319 319 333 343 360 358 313 5 336 313 326 330 323 318 312 306 307 309 307 307 298 288 272 275 288 294 281 231 254 277 289 283 287 311 218 227 255 238 254 256 233 209 153 148 177 183 168 156 172 195 91 76 88 81 87 97 90 87 81 81 80 77 76 74 73 70 66
335 334 332 328 327 326 327 327 327 330 332 332 331 331 330 327 325 323 323 323 324 325 330 345 359 35 58 57 30 7 346 333 330 331 326 320 317 315 315 310 304 300 290 271 271 289 301 313 245 254 261 272 285 301 275 220 213 244 234 238 249 253 205 109 131 177 179 168 166 206 236 129 88 90 78 91 105 96 91 86 85 84 82 81 77 75 72 68
337 336 333 331 332 333 333 332 332 333 334 334 333 334 332 327 328 328 331 338 338 340 347 1 32 65 105 96 35 12 5 350 339 341 339 339 346 336 314 309 309 303 288 273 272 281 298 315 253 249 239 252 252 257 261 238 221 224 240 248 231 238 162 102 107 170 164 160 174 208 230 123 97 93 89 96 104 100 96 91 89 88 86 84 80 78 75 71
340 338 335 335 336 337 337 335 334 335 335 335 334 335 332 329 334 339 353 5 347 343 4 20 53 87 144 105 25 11 3 352 342 342 345 350 346 326 311 314 317 309 292 273 265 272 288 274 250 252 248 238 233 249 269 258 238 214 226 265 259 240 208 119 96 79 95 148 179 219 204 113 106 102 99 102 106 104 100 94 92 90 87 84 82 80 76 73
344 342 340 339 340 341 341 339 337 337 337 336 336 335 333 334 341 1 17 10 352 12 57 33 57 131 73 37 32 5 347 340 343 348 344 347 344 328 321 324 316 315 302 269 254 242 236 233 243 244 233 237 250 266 266 266 267 226 209 258 266 247 252 213 109 81 107 165 169 163 108 100 108 109 103 104 108 105 102 99 96 92 89 86 83 80 76 72
346 345 344 343 344 344 343 343 339 340 340 337 338 337 336 339 346 36 29 19 18 54 79 32 37 155 61 34 15 345 339 336 355 359 349 342 342 337 331 318 296 289 244 232 212 212 239 226 231 260 239 226 242 253 260 295 326 319 303 292 287 263 260 246 112 74 101 139 122 110 107 108 112 111 105 105 108 107 103 101 99 96 93 90 86 82 77 73
346 346 347 344 344 345 343 343 341 342 344 341 344 342 343 351 356 59 30 27 46 43 61 23 15 269 29 32 1 343 346 5 16 6 355 342 339 341 335 323 296 254 245 244 179 183 270 255 239 264 293 306 333 323 300 321 333 318 307 299 296 288 278 118 93 70 84 110 116 119 119 122 122 116 112 110 110 109 107 106 103 99 95 91 88 84 79 75
344 345 346 343 344 344 341 342 341 344 346 345 352 354 360 351 324 86 41 47 63 60 65 40 31 32 33 14 357 356 6 29 30 10 360 357 353 347 331 310 257 231 248 317 345 101 286 268 272 358 3 356 352 345 322 316 315 302 293 285 278 271 270 101 106 90 68 86 95 113 118 122 124 121 118 118 119 116 113 111 106 102 99 94 91 87 82 78
342 344 345 343 342 341 339 340 340 345 348 351 2 7 8 343 321 94 60 62 61 65 74 56 48 41 29 11 6 16 22 21 33 10 6 11 2 349 341 317 271 238 44 332 293 145 244 260 21 18 359 345 333 331 323 305 294 283 276 273 273 266 236 100 114 105 111 154 115 121 121 119 124 122 122 123 119 116 116 115 110 106 102 97 94 90 86 82
339 341 344 343 340 339 338 337 340 347 349 354 4 4 10 29 41 85 101 88 59 63 73 56 48 31 15 13 11 23 31 18 13 6 9 15 9 5 355 342 331 8 23 315 272 252 234 57 30 5 344 323 307 315 307 290 275 268 266 267 278 273 114 101 110 123 181 177 145 143 130 121 128 123 120 120 109 102 106 110 111 109 105 101 97 92 90 84
338 340 344 342 339 340 338 338 343 349 350 349 353 358 19 50 65 107 125 116 73 64 64 53 46 27 14 8 6 29 44 27 1 359 6 12 12 16 359 353 359 352 9 4 341 319 337 40 15 343 330 318 307 304 292 288 269 254 258 275 289 79 159 265 122 141 193 175 157 152 135 130 136 127 117 112 109 103 99 100 99 100 99 97 94 90 87 80
337 339 343 342 339 340 338 340 344 346 348 343 349 4 24 39 60 122 128 125 100 72 52 49 39 24 17 4 5 38 63 44 24 358 4 9 4 6 10 357 337 340 30 2 329 352 48 34 354 319 307 319 316 326 333 323 297 273 278 305 309 330 312 334 116 137 112 115 152 151 159 173 163 159 141 121 119 113 108 106 99 97 98 94 91 84 78 74
338 340 343 343 340 340 341 345 346 347 347 342 354 3 13 32 66 138 147 159 107 64 26 29 24 15 9 1 5 36 107 52 31 6 6 10 6 2 5 351 342 360 18 352 314 82 57 30 344 322 315 320 314 355 19 348 308 317 41 3 330 316 319 111 136 162 176 193 174 178 236 193 162 170 155 139 135 124 119 116 107 104 104 98 93 85 77 72
339 340 342 344 342 343 349 349 343 348 347 344 354 354 4 20 70 143 175 205 98 31 352 9 15 6 4 5 3 348 163 41 21 13 9 12 19 13 344 359 27 7 359 350 345 78 24 2 340 330 322 332 348 43 28 357 313 320 22 356 336 317 299 170 172 205 255 278 169 191 250 270 167 176 158 151 147 133 128 121 115 111 105 98 91 85 77 71
339 339 341 344 344 350 359 344 338 349 347 340 345 346 359 360 113 147 215 208 97 10 349 12 11 1 9 19 12 4 198 348 2 18 11 14 27 28 15 13 18 25 8 309 9 47 2 5 7 353 344 4 20 17 8 353 320 327 6 341 331 318 288 234 217 235 269 353 152 189 231 271 224 159 147 153 149 144 144 133 124 113 102 96 88 81 74 65
337 337 339 344 347 356 2 348 343 348 345 336 340 346 344 342 127 171 246 193 59 356 355 8 2 8 17 30 29 48 38 349 358 19 13 19 21 20 41 22 351 359 354 317 13 43 19 17 14 2 5 20 9 345 344 336 311 346 354 319 308 294 281 268 247 250 274 294 237 204 205 250 291 122 142 162 162 166 163 153 141 118 103 95 84 76 70 61
338 337 340 345 350 357 357 352 347 344 344 342 344 347 339 360 134 211 247 138 37 10 15 5 1 2 354 11 39 44 34 20 23 7 13 26 21 17 53 24 355 320 335 24 42 50 44 32 17 10 15 7 341 334 340 314 295 331 313 282 267 263 258 258 252 260 274 266 275 253 192 221 287 132 164 184 187 194 172 157 151 133 112 99 87 72 67 58
342 340 343 348 355 358 352 347 345 342 347 348 348 348 341 22 194 230 290 60 12 12 7 7 3 339 345 18 48 27 31 37 13 356 22 36 28 30 37 352 351 308 231 78 77 101 103 100 64 39 17 331 312 306 283 273 282 290 287 276 264 248 227 241 247 253 269 254 305 342 201 234 263 129 130 156 225 210 168 158 148 140 124 107 93 71 63 50
344 343 344 351 356 357 353 347 343 344 349 347 349 349 316 238 258 273 59 62 339 3 359 7 8 346 359 34 36 14 30 39 10 4 27 32 29 30 28 356 352 333 204 53 91 130 122 119 97 70 359 336 311 284 213 229 257 273 289 311 305 278 216 236 226 209 263 273 32 24 356 274 279 85 58 41 33 75 155 164 151 141 127 107 86 65 56 29
344 342 345 352 354 355 352 345 342 346 344 341 349 345 243 212 33 34 29 303 290 7 16 360 357 351 348 13 26 10 9 28 17 14 19 24 40 38 40 30 356 348 17 7 7 107 107 91 66 154 32 2 340 323 342 223 262 319 337 342 333 328 318 296 295 281 291 15 68 41 1 310 352 73 51 56 54 66 114 128 133 129 113 99 75 51 32 352
342 342 349 352 349 349 347 346 348 346 340 342 345 300 250 286 57 50 357 353 11 7 350 294 321 331 328 347 19 1 339 24 14 9 16 31 53 55 57 42 9 353 343 342 347 352 88 99 41 44 35 4 360 3 12 340 332 355 359 350 344 347 339 319 318 315 310 346 45 41 13 309 117 85 52 69 68 73 90 92 102 105 97 99 72 20 339 317
345 350 357 352 346 344 345 349 348 344 348 345 316 249 38 60 73 129 353 15 35 339 323 309 291 303 45 55 23 355 13 71 25 21 31 34 44 38 39 32 15 1 321 323 5 346 331 64 20 15 1 357 14 31 342 311 318 351 1 351 356 6 350 316 315 321 312 306 312 341 6 321 93 97 83 89 86 89 95 94 98 100 100 113 63 359 330 299
358 13 6 355 352 352 353 355 352 356 1 341 322 57 60 72 77 27 23 5 358 333 328 339 288 278 92 80 46 17 22 58 34 37 46 44 46 27 10 13 11 2 336 347 23 336 333 39 45 30 20 4 18 29 327 309 311 353 358 1 8 6 323 282 299 298 287 297 302 220 110 43 77 116 118 110 109 112 113 116 119 118 110 99 341 348 337 307
26 32 12 2 4 8 6 3 360 10 12 340 59 64 57 64 23 6 17 336 319 329 310 299 338 3 59 65 41 26 3 3 1 10 68 65 58 33 12 15 10 1 359 1 18 355 340 39 79 63 65 41 21 11 1 2 349 325 352 359 342 328 268 281 302 291 273 289 300 106 102 106 127 139 138 146 157 155 165 159 145 158 170 287 302 322 333 314
57 36 13 10 17 15 13 25 39 65 72 64 75 70 60 61 24 359 2 338 307 305 302 336 23 358 23 42 32 3 334 337 352 348 51 59 48 22 7 21 22 8 10 340 16 53 325 317 60 22 35 69 22 298 23 41 22 345 10 356 323 282 216 290 311 309 302 303 309 3 69 122 184 150 149 182 200 192 199 186 177 217 243 274 293 307 321 313
72 38 15 14 21 20 25 57 77 87 82 72 85 85 57 56 35 3 354 335 292 280 326 45 44 340 9 28 34 352 331 348 0 357 35 29 31 24 4 11 18 7 5 311 315 34 315 302 107 32 14 83 170 256 142 64 46 31 26 2 342 317 306 321 326 317 311 309 310 327 41 75 38 45 150 213 217 209 213 200 203 245 279 286 290 305 314 310
79 53 17 13 32 40 46 92 99 89 82 72 89 92 59 69 53 8 352 331 289 299 10 47 34 27 38 15 3 7 354 10 12 9 31 12 19 44 24 5 345 351 349 315 322 353 310 307 85 52 76 150 158 24 6 30 36 29 24 15 8 335 313 317 313 311 313 310 314 319 318 360 62 39 341 258 218 214 225 225 228 256 289 295 293 304 311 310
78 75 17 14 55 67 71 95 85 68 68 68 70 81 67 86 75 14 9 10 325 347 33 41 13 40 57 26 7 25 19 31 29 29 37 14 15 69 43 16 333 333 330 295 303 354 313 262 336 350 102 161 3 34 28 14 14 12 19 17 6 349 322 298 275 334 333 311 315 320 314 352 94 61 4 60 219 239 245 250 256 272 292 297 293 304 309 308
83 69 18 24 69 93 80 79 67 50 67 75 69 82 72 74 77 27 19 27 27 37 46 36 31 40 32 31 54 28 20 45 40 38 42 26 27 54 37 15 338 323 322 290 286 3 347 297 315 321 353 48 79 73 40 32 37 33 29 15 358 352 340 316 310 51 360 318 319 311 306 347 103 117 4 65 225 222 234 255 270 285 299 299 297 308 310 303
67 49 17 32 77 102 81 69 45 35 75 75 65 74 73 76 65 25 15 16 20 43 57 43 34 35 26 28 41 31 31 42 33 37 53 42 35 27 3 356 335 303 309 314 14 12 334 300 304 306 17 65 106 108 51 47 78 74 57 27 356 357 4 337 326 350 336 311 314 306 306 338 121 160 159 140 163 170 201 262 289 298 305 304 303 310 310 302
62 47 25 45 89 95 86 79 54 55 70 89 84 68 61 63 51 43 33 19 10 20 46 52 25 27 37 17 1 26 33 29 29 38 60 68 52 27 347 345 335 304 306 340 24 2 327 310 315 308 92 108 125 122 115 194 164 79 57 33 13 12 353 301 305 326 313 312 337 316 309 330 145 172 168 156 158 187 240 285 299 303 308 309 309 312 312 306
71 56 41 46 98 98 80 84 96 88 93 112 99 82 75 62 44 49 39 22 26 8 19 65 42 27 39 6 16 44 23 20 49 45 41 62 56 5 339 350 349 342 354 3 346 343 349 353 335 327 354 84 143 155 196 216 263 21 50 42 29 6 318 288 271 272 277 3 2 309 300 340 129 168 172 157 176 232 277 295 300 305 310 311 312 314 312 309
74 59 48 53 81 95 84 86 110 117 117 109 95 75 82 75 39 39 46 38 38 17 15 72 33 16 35 357 61 60 31 23 52 48 32 57 82 348 327 351 359 355 1 345 321 326 332 349 356 348 350 359 351 345 352 320 312 348 51 29 18 3 334 306 271 279 316 356 339 301 302 333 339 191 188 192 232 279 300 302 300 304 310 313 314 313 310 309
65 68 52 56 72 80 80 80 95 116 125 113 95 54 56 95 75 49 52 50 42 32 41 55 357 295 23 21 95 69 40 43 66 85 65 6 40 182 310 333 354 342 335 340 341 324 265 360 22 358 324 330 332 337 2 344 313 312 18 5 1 6 341 310 296 318 331 318 308 328 336 318 310 310 295 257 282 307 312 306 303 310 315 316 315 312 308 307
62 54 27 59 71 73 74 65 60 90 115 90 94 58 45 92 115 74 53 49 45 35 46 55 35 15 13 18 91 79 53 65 70 65 63 308 291 254 272 275 328 351 346 348 358 332 255 331 45 357 291 285 299 316 340 334 310 309 338 317 332 358 342 333 340 332 321 304 300 327 329 312 307 319 326 329 321 316 313 312 313 317 318 316 315 311 306 305
83 81 64 88 82 52 66 58 45 72 81 69 93 92 74 86 82 60 54 61 63 25 9 68 42 25 22 339 310 101 88 87 72 32 272 318 309 282 252 215 280 9 11 343 9 7 284 323 80 209 284 279 269 279 282 276 281 264 240 261 291 337 323 309 289 262 266 287 297 311 315 306 304 315 335 15 340 314 312 313 313 314 315 314 313 310 305 305
106 105 75 81 89 65 75 74 65 78 74 68 83 66 67 82 76 65 25 343 99 28 5 52 39 15 26 339 294 132 94 47 91 181 241 313 314 318 27 157 248 9 9 350 13 18 286 316 109 226 282 268 226 216 246 243 222 204 217 247 270 269 251 244 259 263 256 264 284 302 305 300 305 327 1 358 321 306 307 309 310 312 312 311 310 308 304 305
119 121 107 100 92 74 69 62 72 94 74 57 77 54 50 76 81 97 35 7 61 40 14 73 76 24 35 38 55 92 54 18 63 101 187 191 262 332 26 26 330 348 3 11 355 337 327 43 123 230 273 228 181 190 225 231 233 233 225 219 244 267 257 237 260 283 276 274 288 301 300 298 329 43 352 312 300 300 308 312 312 313 313 310 309 307 304 305
119 123 121 113 90 32 47 51 33 105 77 44 72 90 78 83 84 100 72 26 33 31 21 80 98 52 57 61 69 77 52 36 50 57 102 144 17 30 35 25 333 318 351 19 337 334 345 342 155 276 304 317 163 215 234 217 240 257 240 230 237 263 270 258 271 286 285 290 300 303 299 307 18 6 319 300 297 304 311 314 314 313 312 309 307 306 305 307
121 123 119 113 97 16 20 46 347 92 83 40 52 67 76 101 118 122 106 77 47 29 20 30 317 348 87 73 69 72 44 43 67 78 94 101 83 80 73 60 37 347 357 360 305 19 352 312 345 334 315 344 351 312 288 172 222 264 228 220 221 245 278 284 280 281 285 292 297 296 299 316 329 323 311 303 306 310 312 314 312 308 306 305 303 304 307 308